Weather History for KPNC - December, 2012

Change the Weather History Date:

Wednesday, December 5, 2012

  Actual Average Record
Temperature  
Mean Temperature 46 °F -  
Max Temperature 63 °F 53 °F 77 °F (1975)
Min Temperature 28 °F 37 °F 11 °F (1964)
Degree Days  
Heating Degree Days 20    
Moisture  
Dew Point 23 °F    
Average Humidity 45    
Maximum Humidity 81    
Minimum Humidity 13    
Precipitation  
Precipitation 0.00 in - - ()
Sea Level Pressure  
Sea Level Pressure 30.18 in    
Wind  
Wind Speed 5 mph (SSE)    
Max Wind Speed 15 mph    
Max Gust Speed 18 mph    
Visibility 10 miles    
Events Snow    
Averages and records for this station are not official NWS values.
T = Trace of Precipitation, MM = Missing Value Source: NWS Daily Summary

Daily Weather History Graph

Daily Weather History Graph

Search for Another Location

Airport or City:

Trip Planner

Search our weather history database for the weather conditions in past years. The results will help you decide how hot, cold, wet, or windy it might be!

Date:

Astronomy

Dec. 05, 2012 Rise Set
Actual Time 7:26 AM CST 5:12 PM CST
Civil Twilight 6:57 AM CST 5:40 PM CST
Nautical Twilight 6:25 AM CST 6:12 PM CST
Astronomical Twilight 5:54 AM CST 6:44 PM CST
Moon 11:55 PM CST (12/5) 11:57 AM CST (12/5)
Length of Visible Light 10h 42m
Length of Day
9h 45m
Waning Gibbous, 59% of the Moon is Illuminated
Dec 5
Waning Gibbous
Dec 6
Last Quarter
Dec 13
New
Dec 19
First Quarter
Dec 28
Full

Hourly Weather History & Observations

Time (CST) Temp. Dew Point Humidity Pressure Visibility Wind Dir Wind Speed Gust Speed Precip Events Conditions
12:53 AM 36.0 °F 25.0 °F 64% 30.33 in 10.0 mi Calm Calm - N/A   Clear
1:53 AM 33.1 °F 25.0 °F 72% 30.32 in 9.0 mi Calm Calm - 0.00 in Snow Light Snow
2:53 AM 33.1 °F 24.1 °F 70% 30.32 in 10.0 mi Calm Calm - 0.00 in   Clear
3:53 AM 32.0 °F 24.1 °F 73% 30.32 in 10.0 mi Calm Calm - N/A   Clear
4:53 AM 30.0 °F 24.1 °F 79% 30.31 in 10.0 mi Calm Calm - N/A   Clear
5:53 AM 30.0 °F 24.1 °F 79% 30.31 in 10.0 mi Calm Calm - N/A   Clear
6:53 AM 28.0 °F 23.0 °F 81% 30.33 in 10.0 mi Calm Calm - N/A   Clear
8:53 AM 41.0 °F 33.1 °F 73% 30.31 in 10.0 mi Calm Calm - N/A   Clear
9:53 AM 53.1 °F 30.9 °F 43% 30.30 in 10.0 mi SE 8.1 mph - N/A   Clear
10:53 AM 57.0 °F 27.0 °F 32% 30.28 in 10.0 mi SSE 10.4 mph - N/A   Clear
11:53 AM 61.0 °F 19.9 °F 21% 30.24 in 10.0 mi SSE 12.7 mph - N/A   Clear
12:53 PM 61.0 °F 18.0 °F 19% 30.20 in 10.0 mi South 8.1 mph 18.4 mph N/A   Clear
1:53 PM 62.1 °F 10.9 °F 13% 30.16 in 10.0 mi South 9.2 mph - N/A   Clear
2:53 PM 63.0 °F 16.0 °F 16% 30.11 in 10.0 mi SSE 11.5 mph - N/A   Clear
3:53 PM 62.1 °F 14.0 °F 15% 30.09 in 10.0 mi SSE 15.0 mph - N/A   Clear
4:53 PM 60.1 °F 14.0 °F 16% 30.08 in 10.0 mi SSE 12.7 mph - N/A   Clear
5:53 PM 54.0 °F 17.1 °F 23% 30.08 in 10.0 mi SSE 6.9 mph - N/A   Clear
6:53 PM 48.0 °F 18.0 °F 30% 30.07 in 10.0 mi SE 6.9 mph - N/A   Clear
7:53 PM 48.9 °F 23.0 °F 36% 30.06 in 10.0 mi SE 10.4 mph - N/A   Clear
8:53 PM 48.9 °F 25.0 °F 39% 30.04 in 10.0 mi SE 11.5 mph - N/A   Clear
9:53 PM 50.0 °F 27.0 °F 41% 30.01 in 10.0 mi SSE 12.7 mph - N/A   Clear
10:53 PM 50.0 °F 28.0 °F 43% 30.01 in 10.0 mi SSE 15.0 mph - N/A   Clear
11:53 PM 48.9 °F 28.9 °F 46% 29.97 in 10.0 mi SSE 13.8 mph - N/A   Clear